User: anonymous   Login
Location: Lake Arresoe
(56.0000°N, 12.5000°E)
Time: 22:14:15
(UTC+02:00)
Language:

Cosmos 1674 - Orbit

View from above orbital plane
View from above orbital plane
View from above satellite
View from above satellite

Ground track
Ground track

The orbit data is extracted from the following two-line orbital elements,

1 15944U 85069A   21269.32194627  .00001681  00000-0  74899-4 0  9992
2 15944  82.5048 119.3558 0018154  87.6680 272.6634 15.20600127974956
Epoch (UTC): 26 September 2021 07:43:36
Eccentricity: 0.0018154
inclination: 82.5048°
perigee height: 491 km
apogee height: 516 km
right ascension of ascending node: 119.3558°
argument of perigee: 87.6680°
revolutions per day: 15.20600127
mean anomaly at epoch: 272.6634°
orbit number at epoch: 97495

The dashed part of the orbit path shows where the satellite is in the earth's shadow,  

DLR